Overview Statistics Trail Chart Weather Telemetry Raw packets
 

This is the latest recevied weather packets stored in our database for station/object DF1GD-10. If no packets are shown the sender has not sent any weather packets the latest 10 day(s).

<< 31 32 33 34 35 36 37 >>
Time Temp. Humidity Pressure Rain* Wind** Luminosity Snow
1787959318 17.22° C 44% 1016.6 hPa - - - -
1787958418 17.78° C 43% 1016.5 hPa - - - -
1787957517 17.78° C 43% 1016.4 hPa - - - -
1787956617 17.78° C 44% 1016.3 hPa - - - -
1787955717 17.78° C 42% 1016.1 hPa - - - -
1787954817 18.33° C 41% 1016 hPa - - - -
1787953917 18.33° C 40% 1015.7 hPa - - - -
1787953017 18.33° C 41% 1015.9 hPa - - - -
1787952117 18.89° C 42% 1015.7 hPa - - - -
1787951216 18.89° C 40% 1015.4 hPa - - - -
1787950316 19.44° C 39% 1015.2 hPa - - - -
1787949416 19.44° C 39% 1015.1 hPa - - - -
1787948516 19.44° C 37% 1015 hPa - - - -
1787947616 20° C 35% 1014.7 hPa - - - -
1787946716 20° C 34% 1014.4 hPa - - - -
1787945816 20° C 34% 1014.2 hPa - - - -
1787944915 20° C 34% 1014.1 hPa - - - -
1787944015 20.56° C 34% 1014 hPa - - - -
1787943115 20.56° C 36% 1014 hPa - - - -
1787942215 20.56° C 37% 1013.8 hPa - - - -
1787941315 21.11° C 37% 1013.5 hPa - - - -
1787940415 21.11° C 35% 1013.3 hPa - - - -
1787939515 21.11° C 35% 1013 hPa - - - -
1787938614 21.67° C 34% 1013 hPa - - - -
1787937714 22.78° C 32% 1012.9 hPa - - - -

* Rain since midnight (hover to see other rain measurements)
** Current wind speed in m/s (hover to see current wind gust speed)